Terminal Aerodrome Forecast
Issued by NWS Flagstaff, AZ

Home | Current Version | Previous Version | Text Only | Print | Product List | Glossary On
Versions: 1 2 3 4 5 6 7 8 9 10 11 12 13 14 15 16 17 18 19 20 21 22 23 24 25 26
000
FTUS45 KFGZ 292300
TAFFLG
TAF
KFLG 292336Z 3000/3024 21012G20KT P6SM SCT080
     FM300400 VRB03KT P6SM FEW080
     FM301800 24010G17KT P6SM SCT080 PROB30 3020/3022 P6SM -TSRA
      BKN060CB=

USA.gov is the U.S. government's official web portal to all federal, state and local government web resources and services.